Theta_e
308 308 312 310 310 295 300 301 297 300 304 303 301 302 303 303 298 295 306 304 306 311 310 313 314 317 319 320 320 321 322 324 327 327 328 329 330 332 334 337 337 339 341 341 342 342 343 345 346 346 347 349 351 353 356 357 357 358 358 359 358 358 359
309 311 312 311 311 308 301 298 300 307 307 306 301 292 296 294 290 295 301 298 299 301 297 310 311 313 316 318 319 321 322 324 325 326 328 330 331 332 333 335 338 339 340 341 342 344 344 345 346 346 348 349 351 354 356 356 357 358 358 359 358 358 358
309 311 310 308 310 310 304 301 308 300 293 295 298 300 289 290 290 292 297 300 300 302 303 307 308 309 314 316 318 319 320 322 324 326 328 331 332 333 332 333 335 338 340 341 341 342 345 346 347 348 349 350 350 353 356 357 357 359 360 360 359 359 359
308 308 306 299 302 307 309 308 304 306 300 296 295 297 297 295 291 294 293 298 295 308 304 308 309 310 312 316 317 317 320 322 322 324 329 330 331 332 332 333 334 337 339 341 342 342 344 346 347 348 349 350 350 352 355 357 359 360 361 360 359 358 359
308 300 304 301 302 300 301 301 300 301 301 304 300 301 297 293 292 290 292 290 298 305 311 309 310 311 313 316 317 318 321 322 323 325 328 330 331 331 332 332 333 336 338 341 343 343 345 347 348 349 349 349 350 352 354 357 357 359 360 360 359 359 359
301 303 307 307 306 305 303 301 300 301 297 295 292 291 301 299 294 289 291 292 301 308 315 313 313 315 315 316 318 318 320 322 322 325 328 330 330 331 331 332 333 336 339 341 343 344 346 348 348 348 349 349 349 351 353 356 358 359 360 360 360 359 359
300 306 309 311 310 309 307 305 302 304 300 298 294 286 292 297 298 301 299 295 297 309 313 313 314 320 318 317 319 318 319 321 321 327 329 330 331 331 332 332 334 336 339 341 343 344 345 347 348 348 348 349 349 350 352 354 356 358 360 361 361 360 359
306 308 310 310 310 309 305 305 306 303 300 300 297 296 298 296 298 295 295 295 299 310 312 327 318 316 321 319 321 319 320 320 321 326 329 329 330 331 333 333 335 338 340 340 342 344 345 346 346 347 348 349 349 350 351 353 354 357 359 361 362 360 359
295 300 304 304 308 307 304 302 304 305 304 303 302 301 305 297 297 298 294 291 296 309 312 313 315 318 317 317 319 321 319 319 320 320 328 330 331 332 332 333 334 336 339 339 340 344 346 346 347 348 348 348 349 349 350 351 353 356 359 361 361 361 360
289 289 291 293 296 301 304 305 304 305 304 302 299 295 295 288 299 300 295 295 300 307 310 312 312 311 313 318 318 320 321 320 319 320 329 330 331 332 332 332 333 335 337 340 341 344 346 347 348 348 348 349 349 349 349 351 352 354 357 360 361 361 361
294 297 301 310 309 303 301 303 304 304 305 305 302 298 294 290 293 299 298 300 305 308 307 309 310 310 311 313 319 316 317 322 322 321 329 330 332 332 331 332 334 336 339 340 342 344 347 348 349 349 349 349 349 348 348 350 352 354 357 359 361 361 361
302 306 306 307 308 304 304 303 303 305 305 304 302 297 295 299 296 289 297 307 305 304 306 309 309 310 310 318 316 317 323 330 329 328 327 337 332 332 332 332 333 335 338 340 341 341 343 348 350 351 351 351 350 348 348 349 352 354 357 359 360 361 360
304 305 306 307 307 306 305 305 304 303 304 304 301 301 302 303 296 294 298 304 305 307 306 309 314 315 313 316 322 319 319 325 330 331 329 330 331 330 330 332 334 336 336 338 339 341 342 345 348 351 351 351 351 350 349 350 352 353 357 358 359 360 360
304 304 304 305 304 305 305 304 305 305 304 304 304 303 303 303 302 302 302 304 305 308 306 308 308 317 323 324 327 324 319 319 331 333 332 331 331 331 331 333 336 337 338 338 340 341 344 346 347 350 352 352 351 350 350 350 351 353 356 357 357 358 358
302 304 305 305 304 303 303 305 305 305 305 304 305 304 304 305 302 303 303 303 304 307 307 308 310 313 316 317 318 322 326 328 337 332 333 335 335 338 339 335 337 338 338 339 342 345 347 348 349 350 352 353 353 352 352 351 351 353 355 356 356 357 357
303 305 304 304 305 304 303 303 304 304 304 302 303 302 304 302 301 303 303 300 300 306 312 312 311 310 314 314 318 320 323 326 329 335 335 338 339 342 342 340 340 342 346 346 347 349 351 351 351 352 353 353 353 353 353 352 352 353 354 355 355 356 358
299 303 305 304 304 302 299 300 303 305 306 309 306 305 307 306 305 301 299 297 303 305 312 308 308 308 308 310 312 314 317 318 318 321 331 337 340 342 342 342 342 344 350 351 350 352 353 353 352 353 355 354 353 353 353 353 353 352 353 354 354 355 358
298 302 303 305 301 293 295 305 308 308 305 306 304 304 305 306 305 303 304 304 309 315 314 310 308 307 308 309 313 315 314 317 319 321 322 323 326 340 342 343 343 345 351 354 355 354 354 355 354 354 355 355 355 355 355 354 351 351 351 353 353 354 357
296 302 303 297 292 295 309 309 310 310 309 309 307 307 307 308 310 310 308 308 309 315 316 316 315 314 317 322 322 319 321 321 327 325 326 329 326 327 339 342 343 344 347 351 354 354 355 355 354 354 355 356 356 355 355 353 351 350 352 352 352 354 357
300 298 297 290 292 307 311 309 313 316 312 310 308 305 307 309 308 314 314 314 318 317 316 319 319 318 318 315 316 318 318 319 323 323 322 321 325 330 334 340 343 343 344 348 351 353 356 356 355 355 355 356 356 355 356 355 352 351 352 353 352 354 356
293 294 294 295 304 303 308 310 311 309 308 312 306 300 308 316 318 318 317 317 318 321 321 321 321 322 321 317 315 318 316 319 319 317 317 319 319 320 330 340 343 345 346 348 352 354 355 356 356 356 356 357 357 356 356 356 354 352 355 354 353 354 356
298 293 292 293 293 292 299 310 315 316 315 314 313 311 308 324 321 321 320 319 322 324 325 322 319 318 314 311 313 320 325 322 317 317 316 316 316 318 325 341 344 349 350 351 353 354 355 356 357 357 357 358 357 356 355 357 355 354 357 356 355 355 357
297 296 292 291 291 295 306 312 312 317 316 315 314 308 304 323 324 323 321 323 325 325 325 324 324 315 310 312 316 325 328 326 324 319 317 317 316 317 317 330 342 348 349 351 352 355 356 355 357 358 358 357 357 355 355 356 356 354 357 358 357 357 359
302 300 293 292 299 300 307 313 315 315 319 317 310 297 299 317 326 323 324 324 325 326 327 328 325 321 316 318 323 328 329 330 326 326 325 326 328 326 319 318 323 342 349 349 349 353 355 356 358 358 358 357 356 356 355 357 356 355 357 359 360 360 363
299 301 299 298 300 315 320 318 316 317 318 315 299 292 308 324 324 326 327 326 327 327 325 326 322 325 327 327 327 331 339 339 333 331 331 330 332 340 344 335 336 322 344 350 352 354 357 358 358 359 358 357 355 355 356 356 355 356 359 362 362 363 365
298 298 297 297 303 313 318 316 319 318 313 299 297 315 325 325 324 326 327 327 328 329 328 327 327 329 332 337 338 339 339 340 340 341 341 348 350 357 356 353 350 337 321 340 353 356 359 358 358 359 358 356 355 356 356 356 356 359 362 363 364 365 365
302 302 299 294 288 309 318 319 315 318 309 310 319 322 322 324 324 326 329 331 332 333 331 334 334 334 336 337 337 337 337 338 337 338 338 338 341 346 349 350 350 352 355 350 353 357 360 360 360 360 359 356 355 356 356 357 359 362 365 365 365 365 364
296 297 294 294 305 312 316 316 311 316 321 322 326 320 317 323 324 326 329 331 333 334 333 332 332 333 333 334 333 334 335 336 336 337 337 336 335 338 343 344 344 351 353 354 357 360 361 361 361 361 359 356 356 357 357 360 363 365 365 365 365 363 360
303 301 305 313 318 319 321 321 320 321 322 323 322 322 325 326 328 331 329 329 331 332 332 330 330 329 331 332 333 332 332 332 333 334 335 334 333 335 336 337 338 338 337 338 340 345 357 361 362 362 361 359 356 357 360 362 363 365 364 363 361 359 358
315 315 316 318 318 319 320 321 321 321 321 325 328 329 326 327 327 327 326 327 329 330 330 328 327 328 329 330 330 331 331 330 331 333 333 333 333 333 335 337 339 339 340 341 340 344 352 362 362 360 361 360 357 360 363 362 364 364 361 358 356 356 355
304 298 316 316 317 319 319 319 321 324 325 325 326 324 324 324 324 323 324 325 326 327 326 325 323 324 327 327 329 330 330 329 329 331 330 331 332 332 332 333 336 338 340 339 336 337 344 352 362 363 362 362 361 361 361 363 362 359 356 354 351 351 350
308 307 314 317 320 318 319 318 317 318 321 322 322 322 322 322 322 322 322 323 323 325 323 322 321 321 322 324 326 329 329 328 329 330 329 329 331 333 333 333 335 336 335 334 334 335 335 338 343 343 344 347 349 354 359 359 356 353 351 350 350 349 347
312 315 315 316 317 317 317 318 318 318 317 317 319 320 319 319 318 318 318 318 317 318 319 323 323 321 320 321 321 322 324 327 329 330 329 328 331 332 332 333 334 332 332 332 334 336 337 338 341 342 342 343 346 350 351 354 353 350 348 344 346 345 344
305 306 311 316 308 307 313 316 319 317 317 317 316 316 316 317 316 316 316 316 317 317 317 317 318 318 319 320 320 320 320 322 327 331 329 327 328 329 331 333 332 336 336 333 333 335 336 337 339 341 341 342 343 344 345 347 346 344 343 344 343 342 342
305 314 316 319 317 314 315 315 317 318 318 317 315 313 313 313 314 315 315 314 314 314 315 317 316 315 315 316 317 318 319 321 325 332 333 329 327 328 331 330 330 331 334 338 336 336 337 339 341 342 342 344 342 342 344 345 344 342 341 340 341 341 341
315 318 319 320 317 313 314 316 316 317 318 315 314 315 315 314 314 314 314 314 313 312 313 314 316 316 315 315 315 315 317 320 322 325 332 333 332 332 333 333 333 334 335 333 333 334 334 337 339 341 341 341 340 343 342 342 343 342 341 341 339 339 339
313 320 320 320 319 318 319 317 316 317 318 318 315 315 315 315 315 316 314 314 314 313 312 312 314 316 316 315 315 315 317 320 322 323 322 324 329 332 333 333 333 333 334 337 335 338 338 340 341 343 343 342 344 346 346 345 345 342 341 340 339 338 338
Wind_Speed
14 8 13 13 10 9 7 6 13 14 5 6 0 4 3 3 5 7 2 5 5 0 7 12 16 6 13 18 17 14 12 15 18 18 19 18 16 15 14 14 14 17 16 16 17 17 16 17 18 19 19 18 19 17 17 19 18 17 18 17 16 15 15
18 15 10 14 15 8 3 13 8 1 4 2 3 3 2 6 5 4 7 5 2 5 5 7 15 5 11 14 14 13 15 16 16 13 15 15 16 16 16 16 15 17 17 18 16 15 17 18 20 19 19 17 17 17 18 19 18 19 18 17 17 16 16
15 17 11 12 13 14 11 2 6 8 6 13 3 2 6 5 8 4 5 10 8 8 5 8 16 8 12 15 14 12 15 18 18 16 17 17 17 15 15 15 15 15 16 17 17 18 18 18 18 18 18 17 15 15 16 19 20 20 19 16 16 14 15
13 14 11 12 10 8 11 8 10 4 3 8 10 6 2 2 2 3 6 6 3 4 4 13 18 14 11 15 17 15 17 20 18 16 17 16 17 16 16 17 16 17 17 18 19 19 18 18 18 17 17 16 18 17 17 17 17 17 16 17 16 16 15
11 12 10 10 10 11 11 11 12 8 5 1 7 5 9 5 3 4 2 5 6 7 3 7 7 10 13 16 18 15 17 18 19 17 17 18 18 18 18 17 17 17 17 17 18 19 19 17 15 15 17 19 18 16 16 17 19 19 18 18 17 15 14
9 9 10 14 14 13 12 13 14 13 8 7 6 6 7 9 7 5 7 8 1 5 8 7 6 9 16 13 14 13 17 20 18 17 21 19 18 20 19 18 18 17 15 16 16 15 14 16 17 19 19 17 18 19 17 17 17 17 19 18 17 16 14
7 7 12 18 18 15 13 13 13 13 6 4 5 5 6 7 7 7 6 3 7 8 3 8 12 6 11 10 9 10 10 16 14 14 17 22 24 20 20 20 17 15 16 16 16 17 17 19 21 21 19 19 19 19 18 17 17 18 18 17 16 15 15
10 13 6 19 20 18 14 13 13 11 12 11 8 4 4 3 2 6 3 6 3 5 9 1 6 7 5 15 22 20 17 15 14 16 17 15 15 19 16 13 12 13 13 12 12 14 15 15 16 19 20 20 19 19 19 18 19 19 18 16 16 15 15
6 8 7 6 17 15 11 9 11 14 11 11 10 7 1 6 9 8 7 10 4 5 8 10 11 3 3 5 4 12 11 10 11 11 15 17 16 13 13 14 15 14 13 14 15 16 18 17 16 16 17 18 19 19 18 19 18 18 17 16 16 16 16
13 12 13 9 12 16 9 8 12 15 17 14 10 10 9 7 3 9 6 3 4 4 14 21 20 13 8 4 7 7 11 8 9 9 13 19 18 16 17 16 14 15 16 16 15 14 14 15 15 15 16 16 16 17 18 17 17 17 17 16 16 16 16
10 11 4 2 2 7 13 15 14 11 14 15 11 5 5 9 5 6 5 4 3 5 14 20 21 15 13 10 3 7 7 8 10 6 12 15 12 11 14 16 14 15 14 17 17 16 16 16 15 14 15 16 16 16 17 17 16 16 16 16 16 16 17
10 6 10 8 8 7 13 15 18 16 13 11 14 10 11 6 2 7 5 3 4 7 5 6 13 13 9 6 6 10 7 6 8 9 8 17 18 17 17 17 17 16 16 15 14 13 13 13 14 13 14 16 16 16 17 16 16 16 14 16 16 17 17
18 15 10 9 13 13 9 16 14 18 18 15 14 12 11 6 8 14 8 4 5 2 4 5 5 6 7 4 4 6 5 8 9 6 10 15 15 16 16 13 12 12 12 12 13 14 14 14 13 14 14 14 14 14 15 16 16 18 16 16 17 17 17
16 18 18 17 15 11 12 12 20 16 19 22 19 14 8 10 6 6 9 8 11 6 5 11 5 5 3 2 1 3 6 7 10 12 8 9 14 17 16 16 16 15 16 13 13 13 12 14 15 14 14 15 16 17 17 17 17 16 15 17 17 17 17
14 19 17 19 19 17 14 10 10 19 15 14 17 15 13 10 8 8 7 8 10 6 6 9 14 4 3 1 0 3 2 5 10 12 14 10 10 8 8 8 9 9 11 13 13 14 14 15 16 16 15 16 16 17 16 17 17 16 17 17 17 17 18
1 4 17 20 19 17 19 18 14 9 18 18 17 17 14 11 9 6 6 8 8 5 5 6 11 4 4 2 4 5 4 2 6 11 11 11 13 13 13 14 14 13 14 14 13 14 15 17 17 16 15 15 15 17 17 18 18 16 16 17 18 18 17
1 4 7 16 22 14 16 20 17 9 5 2 3 9 17 19 14 12 8 8 5 9 7 7 6 8 10 4 5 5 6 6 5 6 12 17 15 14 14 17 17 18 19 18 19 18 17 16 16 17 17 16 17 17 17 17 16 16 16 17 18 17 17
2 5 10 7 7 16 17 7 5 9 10 6 6 5 4 6 13 9 9 6 4 4 4 7 6 8 12 12 7 7 9 8 7 9 9 7 10 17 20 20 18 15 13 13 14 17 18 18 20 19 17 18 18 18 17 15 16 17 16 16 17 18 17
2 3 4 6 8 7 1 12 13 13 14 13 13 10 10 6 4 3 3 5 1 1 1 2 3 5 7 5 2 1 6 8 7 8 7 8 6 8 10 12 15 16 17 16 16 15 15 17 17 16 15 16 15 14 13 15 17 18 17 17 17 17 18
1 2 3 7 9 2 4 3 1 3 2 4 6 8 8 6 4 4 4 3 2 3 5 5 5 7 5 5 3 6 5 5 9 5 4 5 5 8 10 15 17 17 16 15 15 16 14 13 12 14 16 15 14 15 15 16 16 17 16 16 17 17 17
6 4 5 7 5 6 4 2 1 0 2 1 2 2 4 8 7 7 4 6 5 5 5 6 7 5 5 6 8 7 2 5 5 4 6 6 4 4 8 12 13 12 14 15 16 15 14 14 13 14 14 14 15 15 15 14 15 15 15 16 17 18 18
8 5 4 4 6 10 4 1 1 2 9 9 9 4 3 7 5 3 5 6 8 7 6 6 5 7 9 7 7 8 16 11 5 9 7 6 5 6 5 10 9 8 7 9 10 11 14 14 16 15 14 15 15 15 15 15 15 15 15 17 17 17 17
10 10 5 6 9 4 2 2 4 2 3 10 7 4 1 2 3 5 6 9 8 6 5 5 5 7 3 2 4 10 11 10 12 8 12 11 9 8 8 9 13 14 16 17 15 13 13 16 16 15 15 17 17 17 17 16 16 17 17 16 16 17 17
2 1 7 9 3 3 6 5 3 3 0 6 7 4 2 3 2 5 7 11 9 8 8 5 9 9 5 6 7 8 10 11 7 6 6 8 9 10 6 6 10 15 14 13 15 17 18 18 17 16 16 16 18 18 18 18 18 18 18 17 16 15 15
4 6 1 3 3 2 1 1 4 6 4 5 5 6 4 1 7 8 10 9 7 7 7 7 7 3 2 4 5 8 12 14 13 9 4 3 5 4 6 5 6 7 13 17 18 19 18 19 17 17 18 18 18 18 18 17 20 20 17 14 13 14 14
2 3 2 2 1 2 1 5 3 1 6 4 4 2 1 6 7 8 8 9 8 5 6 5 4 4 8 10 11 11 13 13 13 16 14 7 2 1 2 5 8 6 7 13 17 19 17 18 18 17 17 18 18 16 16 18 19 15 13 14 14 14 15
0 2 1 2 1 4 2 2 2 4 1 2 3 4 5 5 7 8 9 9 8 7 7 8 7 8 8 8 8 9 11 12 13 13 15 17 18 10 4 3 4 5 8 4 14 17 18 19 18 18 20 20 17 16 18 18 13 12 14 14 15 15 15
6 1 2 1 3 2 2 2 4 1 4 5 2 7 6 6 6 7 8 10 8 8 9 9 9 10 9 8 9 8 10 11 12 14 16 17 16 16 14 14 17 18 12 11 8 10 12 10 11 11 15 14 13 14 14 11 11 12 13 14 14 14 13
2 3 8 13 20 2 7 8 7 7 6 6 6 9 9 8 8 7 10 9 10 10 9 11 10 9 9 8 9 8 8 9 10 11 11 11 12 11 12 12 12 13 15 20 25 20 4 11 10 11 9 12 12 13 10 12 13 14 14 14 14 13 13
2 6 5 13 19 7 10 7 5 8 9 11 11 11 11 11 11 10 10 9 10 11 9 10 9 8 7 8 9 10 10 10 11 11 12 13 13 14 14 13 9 12 14 18 20 21 16 5 5 3 5 11 14 12 12 12 14 14 14 14 14 14 13
8 5 9 13 16 11 12 14 15 13 12 12 11 13 12 12 12 13 11 11 11 12 13 12 10 10 9 8 8 8 9 11 11 12 12 12 12 12 12 11 10 6 10 13 15 14 17 15 5 6 6 3 6 9 11 13 14 15 15 15 14 14 14
1 5 5 13 12 8 12 10 11 13 14 16 16 13 12 13 13 13 11 11 12 11 13 11 12 13 13 13 11 10 10 9 9 9 12 12 11 11 11 12 12 7 10 13 13 10 11 13 10 13 13 12 10 4 9 14 15 16 16 16 16 15 15
6 6 12 14 12 11 15 15 13 11 10 14 15 14 14 15 16 15 14 14 12 13 11 9 11 14 13 13 12 12 11 11 10 10 8 9 10 11 13 13 13 10 4 9 7 10 8 1 6 7 11 10 7 6 4 11 17 17 16 17 16 16 14
5 5 8 9 7 4 8 10 8 9 11 13 15 14 15 14 13 11 14 13 13 14 13 13 12 12 11 12 12 14 13 13 11 8 7 7 9 11 11 10 12 10 9 7 6 6 7 7 3 4 9 13 11 9 10 9 11 14 13 14 16 15 13
5 2 3 6 6 3 6 7 9 8 8 12 15 14 13 12 11 10 10 12 12 13 12 11 12 12 12 12 12 14 14 15 13 12 10 9 9 10 10 10 11 11 11 7 4 4 5 5 6 6 7 12 13 9 8 7 10 12 14 11 11 12 12
9 4 5 2 2 3 7 9 10 11 9 11 14 13 12 11 10 10 11 9 10 9 10 11 10 10 11 12 12 12 13 15 16 14 12 9 8 6 6 7 7 9 11 12 12 9 4 2 5 7 9 11 12 10 9 8 9 10 10 12 11 11 10
6 5 6 5 2 5 6 6 9 10 10 10 11 10 9 10 10 9 10 9 8 10 9 10 11 10 11 11 10 10 10 12 11 12 12 11 10 8 6 12 13 11 8 3 2 6 8 3 7 10 13 12 10 10 8 8 7 8 10 11 13 12 11
Wind_Direction
232 207 177 204 207 215 194 198 215 217 172 212 239 287 256 258 244 249 239 233 231 37 211 252 259 174 191 182 192 190 179 176 171 175 178 181 182 180 179 177 179 185 188 187 184 181 179 179 181 184 184 182 181 177 179 182 182 183 185 188 188 190 190
215 226 193 200 205 214 133 209 218 224 237 278 190 196 222 245 216 236 231 231 245 170 266 214 250 191 176 180 182 176 166 157 164 173 177 177 180 180 182 181 180 182 186 187 187 184 181 183 184 185 183 182 181 179 179 180 181 184 187 187 190 190 190
199 213 215 211 217 201 225 212 128 203 167 233 202 219 223 212 233 249 235 242 229 189 223 185 234 212 170 172 180 171 166 162 170 172 179 179 178 180 185 188 187 187 187 187 186 186 187 184 182 183 180 178 180 181 181 181 184 186 186 188 190 191 191
179 197 197 214 191 197 218 244 265 224 237 189 208 200 252 134 234 224 248 243 238 207 199 197 201 200 187 182 181 178 178 170 172 171 177 179 180 183 187 192 193 194 193 189 185 186 184 181 182 180 178 179 182 183 180 183 185 184 185 188 188 191 191
177 202 188 195 172 183 188 212 235 235 236 146 181 177 211 178 195 211 235 241 244 251 220 189 206 213 203 185 188 178 176 178 177 175 179 180 182 185 190 192 194 193 196 192 189 187 185 179 173 173 179 184 183 182 184 183 183 184 187 188 189 191 189
226 209 177 182 179 185 192 197 219 224 211 238 214 243 192 207 202 210 220 238 267 264 239 257 236 202 212 197 184 188 177 182 181 180 180 180 183 189 189 191 192 190 189 187 189 187 180 171 172 179 182 181 182 186 185 184 185 187 188 189 190 189 190
245 229 182 181 179 187 197 187 216 221 218 212 213 215 243 196 219 218 220 247 251 251 237 229 248 212 195 188 183 175 173 177 181 181 187 182 185 188 191 191 187 184 184 184 183 184 183 177 179 180 178 181 185 184 182 186 186 189 190 190 189 188 191
270 268 234 181 181 185 198 199 198 209 216 216 228 208 192 194 187 222 232 232 216 198 270 217 258 249 204 188 178 183 184 183 176 172 181 187 187 188 188 178 177 180 180 177 176 182 188 189 183 178 180 183 181 183 185 185 189 187 189 189 189 190 192
284 286 287 223 183 186 198 195 189 203 220 216 226 247 210 212 210 207 175 233 245 200 259 274 279 317 340 164 200 167 178 192 184 178 175 178 182 178 171 176 179 175 173 178 185 186 188 189 186 182 180 180 181 184 183 186 187 186 188 187 188 191 194
205 218 216 204 191 192 182 200 189 191 208 214 207 222 229 228 263 220 217 234 226 239 195 244 255 261 276 296 184 180 166 184 202 180 150 176 180 177 177 176 168 175 180 185 187 187 187 185 182 182 181 180 181 181 186 183 182 186 187 186 189 190 193
205 228 257 176 211 172 199 188 198 200 200 211 214 208 217 219 211 224 246 189 243 219 201 202 247 253 246 251 211 190 175 162 184 170 155 170 167 171 172 166 171 179 180 183 183 181 182 184 182 179 178 179 181 182 183 184 182 184 184 186 188 191 192
208 198 228 238 224 220 193 185 192 202 213 207 214 204 225 210 177 272 242 207 188 245 256 254 230 237 236 198 201 176 164 137 167 170 172 175 169 174 174 175 174 175 181 181 179 179 176 179 180 179 181 181 180 180 182 182 180 182 184 186 189 190 191
212 217 241 234 237 239 223 194 186 194 202 220 224 222 225 159 202 231 240 202 241 251 269 202 209 237 240 218 205 204 182 145 139 140 164 164 169 171 171 171 168 176 179 182 187 182 181 178 178 178 180 181 179 180 180 181 181 185 181 184 188 190 192
207 223 229 243 251 255 254 206 192 196 199 203 216 234 225 215 221 211 228 209 217 212 237 272 225 211 183 146 174 304 197 162 138 146 148 163 172 171 177 178 178 179 180 183 187 186 184 182 184 182 180 181 182 180 182 183 184 182 179 185 187 189 193
203 204 220 241 243 249 258 252 216 200 205 206 205 214 234 243 250 234 218 219 242 243 200 251 272 193 221 116 106 108 332 78 134 155 157 162 165 170 180 182 179 181 184 185 185 184 186 187 186 185 185 183 182 182 181 183 185 183 181 185 188 190 193
283 223 204 215 240 245 252 259 259 228 198 204 194 204 199 220 232 234 229 234 239 266 238 206 257 235 164 240 163 166 177 210 139 146 158 159 167 169 172 183 181 184 187 185 185 190 190 189 187 186 184 182 180 184 183 185 186 182 184 185 187 190 190
270 261 283 220 213 233 248 241 241 246 267 290 241 209 193 201 209 222 218 224 212 211 198 220 215 252 274 229 177 194 204 201 181 208 179 168 175 180 180 182 189 187 186 186 185 187 189 188 188 188 183 179 185 187 186 187 181 182 187 187 187 187 187
177 255 265 303 201 209 227 237 246 245 249 252 251 244 218 209 201 210 183 191 206 158 166 192 231 220 230 248 229 175 183 191 207 187 200 226 200 188 182 181 182 185 185 184 189 188 187 188 187 188 181 182 188 188 185 177 179 186 185 186 186 187 186
166 201 264 290 252 241 318 169 198 218 239 248 262 274 279 290 300 268 226 233 221 92 89 62 336 256 239 186 175 250 155 170 173 180 174 181 189 183 191 191 186 184 185 188 191 193 193 190 190 182 184 188 185 179 173 178 184 185 186 183 186 185 186
125 219 170 229 234 258 326 358 123 50 330 243 228 261 277 298 292 62 76 76 134 130 104 78 64 49 326 298 237 199 235 173 157 166 205 225 176 182 196 192 194 192 192 189 186 192 192 194 190 183 185 184 176 180 178 180 184 187 185 184 185 185 186
204 161 216 244 334 312 270 267 268 103 227 46 141 130 5 45 66 88 104 65 27 43 48 66 51 34 33 21 335 328 293 255 271 186 184 183 221 228 194 201 205 206 196 191 192 188 188 187 185 191 188 180 179 176 178 181 183 185 183 186 185 185 186
182 161 205 250 250 244 244 264 22 121 124 124 137 104 109 8 15 71 96 69 63 47 27 33 56 59 47 9 313 338 355 353 295 274 247 237 222 227 192 194 199 185 192 204 201 194 190 189 190 190 183 179 177 179 183 181 181 185 185 189 187 184 183
178 192 202 211 227 230 154 222 191 42 99 101 76 73 74 308 332 38 73 77 66 56 46 2 39 62 60 297 293 329 345 345 343 348 324 302 272 243 231 181 193 196 188 189 196 198 195 196 196 188 182 180 178 183 185 183 183 185 191 188 183 182 179
106 127 203 224 206 231 182 189 133 151 11 95 85 201 227 264 341 20 58 65 53 57 40 26 54 56 57 345 322 334 337 336 330 346 333 323 330 317 287 247 197 201 203 194 196 195 196 199 193 185 184 183 186 185 185 183 184 188 190 188 182 176 166
151 141 328 303 270 155 256 246 133 139 89 79 130 205 192 242 57 44 67 66 63 58 61 49 67 358 12 323 319 349 352 353 335 319 302 276 259 274 304 286 250 189 199 202 198 199 197 197 191 187 184 186 190 189 184 184 188 189 184 173 166 163 158
187 167 186 235 270 308 107 152 345 359 115 162 182 201 208 93 80 68 58 62 45 53 61 68 73 30 20 15 9 8 11 9 1 352 343 347 5 26 86 22 2 315 230 207 208 200 196 192 189 186 185 188 188 186 182 188 192 181 162 158 158 156 155
279 100 210 66 318 277 295 104 71 9 186 215 168 144 83 76 80 69 60 54 45 42 49 45 47 39 33 36 20 11 9 14 2 353 359 356 345 332 5 25 55 56 346 250 200 201 195 190 188 186 186 185 185 181 185 187 174 160 155 153 153 153 150
336 65 173 163 228 276 302 184 150 195 116 192 114 106 89 66 64 73 71 51 40 43 55 45 37 30 23 21 16 13 16 9 3 2 4 358 354 353 2 21 15 12 11 345 298 209 182 181 180 184 179 176 176 180 179 158 150 147 148 147 146 145 145
95 295 322 311 314 114 72 87 112 103 81 79 97 81 78 79 65 66 68 57 47 39 58 57 40 33 22 15 13 19 7 16 15 8 4 2 354 354 349 351 10 41 42 17 358 329 272 164 167 172 176 172 173 171 159 147 143 146 145 144 141 141 138
345 292 257 307 297 291 105 104 102 103 80 67 68 81 84 68 70 65 73 69 60 60 58 67 48 41 20 23 16 10 10 12 14 13 16 12 8 3 5 358 9 44 40 40 17 334 316 1 79 94 149 168 166 159 148 141 139 137 137 135 135 133 130
30 319 355 311 306 351 44 67 61 55 70 72 71 70 76 82 77 73 66 70 68 65 60 57 59 44 29 37 29 24 18 18 17 18 18 18 14 16 4 358 337 17 78 63 49 347 338 339 23 81 84 89 123 134 134 133 131 131 130 128 124 122 120
62 269 284 285 301 22 39 41 53 67 76 81 77 75 76 75 72 69 65 63 62 58 60 53 54 47 35 33 26 27 26 20 18 17 20 12 17 21 18 10 352 358 43 75 86 62 16 346 8 48 36 7 348 35 118 125 125 124 123 124 122 122 117
302 324 281 271 290 33 47 42 44 52 58 74 72 74 75 72 71 65 59 56 56 49 46 41 48 51 40 37 33 33 23 20 18 20 25 22 22 26 27 13 5 348 61 95 95 103 108 45 328 67 89 78 14 6 72 121 124 122 123 123 121 117 111
274 220 259 324 296 333 6 29 27 52 55 70 76 70 66 66 71 69 72 65 59 58 50 43 42 48 42 33 29 34 28 19 16 18 16 20 35 41 31 26 11 7 355 35 17 77 99 95 51 64 80 79 64 36 24 19 72 89 95 105 110 109 110
248 169 260 286 300 358 13 22 23 26 54 65 68 65 69 67 65 70 73 68 57 54 49 46 51 47 40 32 28 35 29 23 20 24 19 12 30 46 39 35 19 6 349 356 29 9 24 39 26 17 38 82 92 76 39 34 84 102 115 109 108 110 116
269 193 239 268 348 28 14 16 34 34 31 62 70 68 66 68 67 66 66 60 70 62 54 45 41 50 51 41 35 37 34 31 26 25 25 24 8 8 45 47 11 350 358 356 357 352 337 23 72 91 83 82 85 91 110 116 122 128 125 123 122 119 122
256 202 197 149 151 70 47 21 38 40 39 48 60 58 59 65 64 62 66 65 59 65 60 52 40 33 44 47 43 38 39 37 36 32 32 24 14 356 20 82 72 41 1 30 320 318 321 283 163 126 113 114 118 119 117 127 142 129 128 125 125 129 134